Zurück zum Katalog

AISSAT 2

AktivWissenschaftPO
NORAD 40075·PAYLOAD·🇳🇴 Norway

Gestartet Jul 8, 2014 von Baikonur Cosmodrome

Loading…

Nächste Überflüge (nächste 24 Stunden)

TLE

AktuellSource: Space-Track

Epoche: Sep 13, 2026, 22:20 UTC

1 40075U 14037G   26256.93107850  .00001303  00000-0  12889-3 0  9993
2 40075  98.4151 236.1455 0004231 348.1765  11.9353 14.93849629659991

Verfolge AISSAT 2 in Echtzeit mit AllMySat

Download on the App Store